EN

Hourly Weather Lagowo

Today, 25 July, Sunday

Time Temperature Precipitation Wind Pressure Humidity
00:00 +19°C° 0 mm 3 mps 751 mmHg 68%
01:00 +19°C° 0 mm 3 mps 751 mmHg 69%
02:00 +19°C° 0 mm 3 mps 751 mmHg 69%
03:00 +19°C° 0 mm 3 mps 751 mmHg 69%
04:00 +19°C° 0 mm 3 mps 750 mmHg 69%
05:00 +20°C° 0 mm 3 mps 750 mmHg 68%
06:00 +21°C° 0 mm 3 mps 750 mmHg 67%
07:00 +22°C° 0 mm 3 mps 750 mmHg 66%
08:00 +24°C° 0 mm 3 mps 750 mmHg 60%
09:00 +26°C° 0 mm 4 mps 750 mmHg 55%
10:00 +28°C° 0 mm 4 mps 750 mmHg 49%
11:00 +27°C° 0 mm 5 mps 750 mmHg 51%
12:00 +27°C° 0 mm 5 mps 751 mmHg 52%
13:00 +27°C° 0 mm 6 mps 751 mmHg 54%
14:00 +27°C° 0 mm 6 mps 751 mmHg 54%
15:00 +27°C° 0 mm 6 mps 751 mmHg 53%
16:00 +27°C° 0 mm 6 mps 751 mmHg 53%
17:00 +26°C° 0 mm 5 mps 751 mmHg 57%
18:00 +25°C° 0 mm 4 mps 751 mmHg 61%
19:00 +24°C° 0 mm 3 mps 751 mmHg 64%
20:00 +21°C° 0 mm 3 mps 751 mmHg 69%
21:00 +20°C° 0 mm 3 mps 751 mmHg 73%
22:00 +19°C° 0 mm 3 mps 751 mmHg 77%
23:00 +19°C° 0 mm 3 mps 751 mmHg 78%

Tomorrow, 26 July, Monday

Time Temperature Precipitation Wind Pressure Humidity
00:00 +19°C° 0 mm 3 mps 751 mmHg 78%
01:00 +19°C° 0 mm 2 mps 750 mmHg 79%
02:00 +19°C° 0 mm 3 mps 750 mmHg 79%
03:00 +19°C° 0 mm 3 mps 750 mmHg 79%
04:00 +19°C° 0 mm 3 mps 750 mmHg 79%
05:00 +20°C° 0 mm 2 mps 750 mmHg 75%
06:00 +21°C° 0 mm 2 mps 750 mmHg 72%
07:00 +23°C° 0 mm 2 mps 750 mmHg 68%
08:00 +24°C° 0 mm 2 mps 750 mmHg 64%
09:00 +26°C° 0 mm 2 mps 750 mmHg 60%
10:00 +27°C° 0 mm 2 mps 750 mmHg 56%
11:00 +28°C° 0 mm 2 mps 750 mmHg 52%
12:00 +29°C° 0 mm 2 mps 750 mmHg 49%
13:00 +30°C° 0 mm 1 mps 750 mmHg 46%
14:00 +31°C° 0 mm 1 mps 750 mmHg 44%
15:00 +31°C° 0 mm 1 mps 749 mmHg 43%
16:00 +31°C° 0 mm 1 mps 749 mmHg 41%
17:00 +30°C° 0 mm 1 mps 749 mmHg 46%
18:00 +29°C° 0 mm 1 mps 749 mmHg 51%
19:00 +27°C° 0 mm 1 mps 749 mmHg 55%
20:00 +26°C° 0 mm 1 mps 749 mmHg 59%
21:00 +25°C° 0 mm 1 mps 749 mmHg 64%
22:00 +23°C° 0 mm 1 mps 750 mmHg 68%
23:00 +23°C° 0 mm 2 mps 750 mmHg 70%

Day after tomorrow, 27 July, Tuesday

Time Temperature Precipitation Wind Pressure Humidity
00:00 +21°C° 0 mm 2 mps 750 mmHg 72%
01:00 +21°C° 0 mm 3 mps 750 mmHg 75%
02:00 +20°C° 0 mm 3 mps 750 mmHg 77%
03:00 +20°C° 0 mm 2 mps 750 mmHg 80%
04:00 +20°C° 0 mm 2 mps 751 mmHg 83%
05:00 +20°C° 0.1 mm 2 mps 751 mmHg 81%
06:00 +21°C° 0.1 mm 3 mps 751 mmHg 79%
07:00 +22°C° 0.1 mm 3 mps 751 mmHg 78%
08:00 +22°C° 0 mm 3 mps 751 mmHg 76%
09:00 +22°C° 0 mm 3 mps 752 mmHg 74%
10:00 +24°C° 0 mm 3 mps 752 mmHg 73%
11:00 +25°C° 0 mm 3 mps 752 mmHg 65%
12:00 +27°C° 0 mm 3 mps 752 mmHg 57%
13:00 +29°C° 0 mm 3 mps 752 mmHg 49%
14:00 +29°C° 0 mm 4 mps 752 mmHg 48%
15:00 +29°C° 0 mm 4 mps 751 mmHg 46%
16:00 +30°C° 0 mm 4 mps 751 mmHg 45%
17:00 +28°C° 0.2 mm 3 mps 751 mmHg 53%
18:00 +26°C° 0.2 mm 2 mps 751 mmHg 60%
19:00 +24°C° 0.2 mm 2 mps 751 mmHg 68%
20:00 +23°C° 0.2 mm 2 mps 752 mmHg 72%
21:00 +21°C° 0.2 mm 2 mps 752 mmHg 75%
22:00 +21°C° 0.2 mm 2 mps 752 mmHg 78%
23:00 +20°C° 0.3 mm 2 mps 752 mmHg 81%

28 July, Wednesday

Time Temperature Precipitation Wind Pressure Humidity
00:00 +19°C° 0.3 mm 2 mps 752 mmHg 84%
01:00 +19°C° 0.3 mm 3 mps 752 mmHg 88%
02:00 +18°C° 0 mm 2 mps 752 mmHg 87%
03:00 +18°C° 0 mm 2 mps 752 mmHg 87%
04:00 +18°C° 0 mm 2 mps 752 mmHg 87%
05:00 +19°C° 0 mm 2 mps 752 mmHg 82%
06:00 +21°C° 0 mm 2 mps 752 mmHg 77%
07:00 +23°C° 0 mm 2 mps 752 mmHg 72%
08:00 +24°C° 0 mm 2 mps 752 mmHg 65%
09:00 +26°C° 0 mm 2 mps 752 mmHg 57%
10:00 +28°C° 0 mm 2 mps 752 mmHg 50%
11:00 +29°C° 0 mm 2 mps 751 mmHg 46%
12:00 +30°C° 0 mm 2 mps 751 mmHg 42%
13:00 +31°C° 0 mm 2 mps 751 mmHg 38%
14:00 +29°C° 0.1 mm 4 mps 751 mmHg 44%
15:00 +27°C° 0.1 mm 6 mps 751 mmHg 50%
16:00 +26°C° 0.1 mm 8 mps 752 mmHg 56%
17:00 +23°C° 0.7 mm 6 mps 752 mmHg 66%
18:00 +21°C° 0.7 mm 4 mps 752 mmHg 76%
19:00 +19°C° 0.7 mm 2 mps 752 mmHg 86%
20:00 +18°C° 0 mm 2 mps 752 mmHg 88%
21:00 +18°C° 0 mm 2 mps 752 mmHg 91%
22:00 +17°C° 0 mm 2 mps 753 mmHg 93%
23:00 +17°C° 0 mm 2 mps 752 mmHg 93%

29 July, Thursday

Time Temperature Precipitation Wind Pressure Humidity
00:00 +17°C° 0 mm 2 mps 752 mmHg 93%
01:00 +17°C° 0 mm 2 mps 752 mmHg 94%
02:00 +16°C° 0 mm 2 mps 752 mmHg 94%
03:00 +16°C° 0 mm 2 mps 752 mmHg 94%
04:00 +16°C° 0 mm 2 mps 752 mmHg 94%
05:00 +18°C° 0 mm 2 mps 752 mmHg 89%
06:00 +19°C° 0 mm 2 mps 752 mmHg 84%
07:00 +21°C° 0 mm 2 mps 752 mmHg 78%
08:00 +23°C° 0 mm 2 mps 752 mmHg 70%
09:00 +25°C° 0 mm 3 mps 752 mmHg 62%
10:00 +27°C° 0 mm 3 mps 752 mmHg 54%
11:00 +28°C° 0 mm 4 mps 752 mmHg 50%
12:00 +29°C° 0 mm 4 mps 752 mmHg 46%
13:00 +30°C° 0 mm 4 mps 751 mmHg 43%
14:00 +30°C° 0 mm 4 mps 751 mmHg 45%
15:00 +30°C° 0 mm 3 mps 751 mmHg 47%
16:00 +30°C° 0 mm 3 mps 751 mmHg 50%
17:00 +29°C° 0 mm 3 mps 750 mmHg 54%
18:00 +28°C° 0 mm 2 mps 750 mmHg 59%
19:00 +27°C° 0 mm 2 mps 750 mmHg 64%
20:00 +25°C° 0.4 mm 2 mps 751 mmHg 72%
21:00 +24°C° 0.4 mm 2 mps 751 mmHg 80%
22:00 +21°C° 0.4 mm 3 mps 751 mmHg 88%
23:00 +21°C° 0.1 mm 2 mps 751 mmHg 89%

30 July, Friday

Time Temperature Precipitation Wind Pressure Humidity
00:00 +21°C° 0.1 mm 2 mps 751 mmHg 91%
01:00 +21°C° 0.1 mm 2 mps 751 mmHg 92%
02:00 +20°C° 0 mm 2 mps 751 mmHg 92%
03:00 +19°C° 0 mm 2 mps 751 mmHg 92%
04:00 +19°C° 0 mm 1 mps 751 mmHg 93%
05:00 +20°C° 0 mm 1 mps 752 mmHg 88%
06:00 +21°C° 0 mm 1 mps 752 mmHg 83%
07:00 +22°C° 0 mm 1 mps 752 mmHg 78%
08:00 +23°C° 0.1 mm 1 mps 752 mmHg 71%
09:00 +25°C° 0.1 mm 2 mps 752 mmHg 64%
10:00 +26°C° 0.1 mm 2 mps 751 mmHg 58%
11:00 +27°C° 0 mm 3 mps 751 mmHg 53%
12:00 +27°C° 0 mm 3 mps 751 mmHg 49%
13:00 +28°C° 0 mm 3 mps 751 mmHg 44%
14:00 +28°C° 0 mm 4 mps 750 mmHg 45%
15:00 +27°C° 0 mm 4 mps 750 mmHg 46%
16:00 +27°C° 0 mm 4 mps 750 mmHg 47%
17:00 +26°C° 0 mm 4 mps 750 mmHg 49%
18:00 +25°C° 0 mm 3 mps 750 mmHg 51%
19:00 +24°C° 0 mm 3 mps 750 mmHg 52%
20:00 +22°C° 0 mm 3 mps 750 mmHg 52%
21:00 +21°C° 0 mm 3 mps 750 mmHg 52%
22:00 +20°C° 0 mm 3 mps 751 mmHg 52%
23:00 +19°C° 0 mm 2 mps 751 mmHg 54%
Show more